Погода в Авчурине

Россия / Калужская область     54°27′21″N   36°25′23″E
темп.,
°C
ветер,
м/с
пор.,
м/с
влажн.,
%
обл.,
%
осадки,
мм/ч
давл.,
гПа
погр.,
м
5 августа, чт
чт500:00+14св117712 0.0 101711
03:00+14юв22779 0.0 101711
06:00+14юв118147 0.0 101721
09:00+20ююв345996 0.0 1016502
12:00+18зюз4679100 1.1 1016356
15:00+16св2392100 3.6 1016112
18:00+19ююв258296 0.0 1014422
21:00+16вюв3689100 0.0 101390
6 августа, пт
пт600:00+16юв397781 0.1 1012245
03:00+14ююв259689 1.1 101289
06:00+15юв369699 0.7 1011149
09:00+19ю3888100 1.9 1011362
12:00+20ююв1485100 0.6 1011317
15:00+23юв4765100 0.7 1010825
18:00+25в4755100 0.0 1007519
21:00+19в614775 0.1 1007320
7 августа, сб
сб700:00+16вюв389299 0.6 1007138
03:00+17ююв3592100 0.6 100796
06:00+17ююв2392100 0.0 100748
09:00+23ю497596 0.7 1008501
12:00+26ю61056100 0.0 10081340
15:00+25ю497398 1.4 10081067
18:00+24ююз397986 1.9 1008373
21:00+19зсз4897100 5.4 1010258
8 августа, вс
вс800:00+17юз3498100 2.4 1011108
03:00+15зсз4795100 3.4 1012164
06:00+14зсз2494100 0.0 1013101
09:00+18зсз227797 0.0 1014394
12:00+23з23520 0.0 10151236
15:00+25з34470 0.0 10151522
18:00+24юз23551 0.0 10151334
21:00+18ююв227037 0.0 101611
9 августа, пн
пн900:00+19юз1267100 0.0 101719
03:00+16юз1182100 0.0 101811
06:00+16зюз118446 0.0 101811
09:00+22зюз22564 0.0 1018375
12:00+26зюз22402 0.0 10181220
15:00+28зюз33365 0.0 10171424
18:00+27юз22485 0.0 1017440
21:00+20ююв12595 0.0 101811